TimeMST,TemperatureF,Dew PointF,Humidity,Sea Level PressureIn,VisibilityMPH,Wind Direction,Wind SpeedMPH,Gust SpeedMPH,PrecipitationIn,Events,Conditions,WindDirDegrees,DateUTC
12:57 AM,78.1,48.0,35,29.64,6.0,WNW,13.8,23.0,N/A,,Haze,300,2013-09-22 07:57:00
1:57 AM,77.0,48.0,36,29.64,10.0,WNW,10.4,-,N/A,,Clear,300,2013-09-22 08:57:00
2:57 AM,75.0,46.9,37,29.63,6.0,WNW,12.7,-,N/A,,Haze,300,2013-09-22 09:57:00
3:57 AM,73.0,48.0,41,29.64,6.0,NNW,9.2,-,N/A,,Haze,330,2013-09-22 10:57:00
4:57 AM,72.0,45.0,38,29.66,6.0,NW,18.4,25.3,N/A,,Haze,310,2013-09-22 11:57:00
5:57 AM,71.1,43.0,36,29.68,6.0,NW,6.9,-,N/A,,Haze,310,2013-09-22 12:57:00
6:57 AM,71.1,43.0,36,29.70,6.0,NNW,11.5,-,N/A,,Haze,340,2013-09-22 13:57:00
7:57 AM,73.0,44.1,35,29.72,10.0,NW,13.8,-,N/A,,Clear,320,2013-09-22 14:57:00
8:57 AM,75.9,44.1,32,29.73,10.0,NNW,13.8,23.0,N/A,,Clear,330,2013-09-22 15:57:00
9:57 AM,79.0,46.0,31,29.74,10.0,WNW,15.0,-,N/A,,Clear,300,2013-09-22 16:57:00
10:57 AM,82.0,46.9,29,29.73,10.0,NNW,9.2,19.6,N/A,,Clear,330,2013-09-22 17:57:00
11:57 AM,84.9,45.0,25,29.72,10.0,NNW,9.2,-,N/A,,Clear,340,2013-09-22 18:57:00
12:57 PM,87.1,35.1,16,29.69,10.0,North,9.2,-,N/A,,Clear,350,2013-09-22 19:57:00
1:57 PM,90.0,24.1,9,29.67,10.0,NNW,10.4,18.4,N/A,,Clear,340,2013-09-22 20:57:00
2:57 PM,90.0,32.0,13,29.66,10.0,WNW,9.2,-,N/A,,Clear,300,2013-09-22 21:57:00
3:57 PM,90.0,37.0,15,29.65,10.0,NW,9.2,16.1,N/A,,Clear,310,2013-09-22 22:57:00
4:57 PM,90.0,32.0,13,29.65,10.0,WNW,10.4,-,N/A,,Clear,290,2013-09-22 23:57:00
5:57 PM,89.1,24.1,9,29.65,10.0,North,11.5,-,N/A,,Clear,360,2013-09-23 00:57:00
6:57 PM,84.9,27.0,12,29.67,10.0,North,8.1,-,N/A,,Clear,10,2013-09-23 01:57:00
7:57 PM,82.9,28.0,14,29.70,10.0,NNE,6.9,-,N/A,,Clear,30,2013-09-23 02:57:00
8:57 PM,80.1,30.0,16,29.72,10.0,North,5.8,-,N/A,,Clear,360,2013-09-23 03:57:00
9:57 PM,78.1,30.9,18,29.73,10.0,NNE,8.1,-,N/A,,Clear,20,2013-09-23 04:57:00
10:57 PM,78.1,33.1,19,29.73,10.0,North,3.5,-,N/A,,Clear,10,2013-09-23 05:57:00
11:57 PM,77.0,32.0,19,29.73,10.0,North,5.8,-,N/A,,Clear,350,2013-09-23 06:57:00